Fargo, ND

9:54 PM CDT on October 22, 2019 (GMT -0500)
Hector International

Weather History for KFAR - August, 2019

Change the Weather History Date:

Sunday, August 4, 2019

  Actual Average Record
Temperature  
Mean Temperature 75 °F 71 °F  
Max Temperature 84 °F 83 °F 105 °F (1947)
Min Temperature 65 °F 59 °F 38 °F (1889)
Degree Days  
Heating Degree Days 0 0  
Month to date heating degree days 0 0  
Since 1 June heating degree days 64 89  
Since 1 July heating degree days 6 16  
Cooling Degree Days 10 7  
Month to date cooling degree days 40 28  
Year to date cooling degree days 418 368  
Since 1 June cooling degree days 408 337  
Growing Degree Days 24 (Base 50)    
Moisture  
Dew Point 68 °F    
Average Humidity 77    
Maximum Humidity 93    
Minimum Humidity 61    
Precipitation  
Precipitation 0.00 in 0.07 in 2.02 in (1996)
Month to date precipitation 0.83 0.28  
Year to date precipitation 17.17 13.75  
Snow  
Snow 0.00 in 0.00 in 0.00 in ()
Month to date snowfall 0.0 0.0  
Since 1 June snowfall 0.0 0.0  
Since 1 July snowfall 0.0 0.0  
Snow Depth 0.00 in    
Sea Level Pressure  
Sea Level Pressure 29.95 in    
Wind  
Wind Speed 7 mph (SSW)    
Max Wind Speed 14 mph    
Max Gust Speed 19 mph    
Visibility 10 miles    
Events      
T = Trace of Precipitation, MM = Missing Value Source: NWS Daily Summary

Daily Weather History Graph

Daily Weather History Graph

Search for Another Location

Airport or City:

Astronomy

Aug. 04, 2019 Rise Set
Actual Time 6:10 AM CDT 8:55 PM CDT
Civil Twilight 5:35 AM CDT 9:30 PM CDT
Nautical Twilight 4:50 AM CDT 10:14 PM CDT
Astronomical Twilight 3:58 AM CDT 11:06 PM CDT
Moon 10:31 AM CDT (8/4) 11:18 PM CDT (8/4)
Length of Visible Light 15h 54m
Length of Day
14h 45m
Waxing Crescent, 18% of the Moon is Illuminated
Aug 4
Waxing Crescent
Aug 7
First Quarter
Aug 15
Full
Aug 23
Last Quarter
Aug 30
New

Hourly Weather History & Observations

Time (CDT) Temp. Heat Index Dew Point Humidity Pressure Visibility Wind Dir Wind Speed Gust Speed Precip Events Conditions
12:53 AM 71.1 °F - 66.0 °F 84% 30.00 in 10.0 mi South 6.9 mph - N/A   Clear
1:53 AM 69.1 °F - 64.9 °F 87% 30.00 in 10.0 mi South 5.8 mph - N/A   Clear
2:53 AM 70.0 °F - 64.9 °F 84% 30.00 in 10.0 mi SSE 5.8 mph - N/A   Partly Cloudy
3:53 AM 69.1 °F - 64.0 °F 84% 29.99 in 10.0 mi SSE 5.8 mph - N/A   Clear
4:53 AM 66.9 °F - 64.0 °F 90% 29.99 in 10.0 mi SSE 6.9 mph - N/A   Clear
5:53 AM 66.0 °F - 64.0 °F 93% 29.99 in 10.0 mi SSE 5.8 mph - N/A   Clear
6:53 AM 66.0 °F - 64.0 °F 93% 29.98 in 10.0 mi SSE 8.1 mph - N/A   Clear
7:53 AM 69.1 °F - 64.0 °F 84% 29.98 in 10.0 mi South 6.9 mph - N/A   Clear
8:53 AM 73.0 °F - 66.0 °F 79% 29.98 in 10.0 mi South 8.1 mph - N/A   Clear
9:53 AM 75.9 °F - 66.9 °F 74% 29.97 in 10.0 mi SSW 10.4 mph - N/A   Clear
10:53 AM 79.0 °F - 69.1 °F 72% 29.97 in 10.0 mi SW 9.2 mph - N/A   Clear
11:53 AM 81.0 °F 84.4 °F 70.0 °F 69% 29.96 in 10.0 mi SSW 10.4 mph - N/A   Partly Cloudy
12:15 PM 82.0 °F 85.9 °F 70.0 °F 67% 29.96 in 10.0 mi SW 9.2 mph - N/A   Mostly Cloudy
12:36 PM 80.1 °F 82.9 °F 69.1 °F 69% 29.96 in 10.0 mi SSW 6.9 mph - N/A   Mostly Cloudy
12:53 PM 84.0 °F 88.4 °F 70.0 °F 63% 29.95 in 10.0 mi SW 10.4 mph - N/A   Scattered Clouds
1:53 PM 82.9 °F 87.0 °F 70.0 °F 65% 29.96 in 10.0 mi SW 9.2 mph - N/A   Partly Cloudy
2:53 PM 82.0 °F 85.9 °F 70.0 °F 67% 29.95 in 10.0 mi SW 9.2 mph - N/A   Clear
3:53 PM 82.0 °F 85.5 °F 69.1 °F 65% 29.94 in 10.0 mi SSW 9.2 mph - N/A   Clear
4:53 PM 82.0 °F 85.9 °F 70.0 °F 67% 29.93 in 10.0 mi SW 9.2 mph - N/A   Clear
5:53 PM 84.0 °F 89.0 °F 71.1 °F 65% 29.91 in 10.0 mi SW 8.1 mph - N/A   Partly Cloudy
6:53 PM 82.9 °F 88.0 °F 72.0 °F 69% 29.89 in 10.0 mi Variable 4.6 mph - N/A   Clear
7:53 PM 82.0 °F 86.3 °F 71.1 °F 69% 29.88 in 10.0 mi Calm Calm - N/A   Clear
8:53 PM 75.9 °F - 72.0 °F 87% 29.89 in 10.0 mi Calm Calm - N/A   Clear
9:53 PM 73.9 °F - 70.0 °F 87% 29.90 in 10.0 mi SSE 3.5 mph - N/A   Partly Cloudy
10:53 PM 73.9 °F - 70.0 °F 87% 29.92 in 10.0 mi SSW 3.5 mph - N/A   Clear
11:53 PM 72.0 °F - 70.0 °F 93% 29.91 in 10.0 mi South 4.6 mph - N/A   Partly Cloudy